COSMOS 2251 DEB, 35996

Orbit data source: Space-Track

COSMOS 2251 DEB, 35996 is space debris in LEO originally from a launch on Wed, 16 Jun 1993 UTC launched from the Plesetsk Missile And Space Complex (PKMTR). The debris from Iridium 33, an American commercial communications satellite, has been tracked extensively since its accidental collision with the defunct Russian satellite Cosmos 2251 in 2009. This event, occurring at high speed in low Earth orbit (LEO), generated thousands of pieces of space debris, significantly increasing the risk of further collisions. The Iridium 33 debris cloud has impacted space traffic management and orbital debris mitigation strategies, making it a subject of ongoing study in space situational awareness.

Loading next visibility...
Identifier
35996, 1993-036AWN
Orbit
LEO
Country
Flag of CISCIS
Related business
Manufacturer
Unknown
Mission
Spacecraft
Bus & Motor
Unknown
Mass
Unknown
Launch date (UTC)
1993-06-16 (32 years ago)
Launch vehicle
Unknown
Launch site
Plesetsk Missile And Space Complex (PKMTR)
Object type
Payload
Rocket body
Debris
Shape & HBR
Unknown shape, 0.1 m
Radar Cross Section
Small (<0.1 m²)

Expand to show TLE details & history
Last TLE update: 1 day ago

TLE from 1 day ago
0 COSMOS 2251 DEB
1 35996U 93036AWN 25303.37704254  .00014827  00000-0  87816-3 0  9993
2 35996  74.0157 192.8358 0092295 293.6533  65.4990 15.07825923716720
Epoch: 2025-10-30T09:02Z
TLE epoch observation values (Epoch: 2025-10-30T09:02:56.475Z)
Latitude
-0.00003°
Longitude
18.16377°
Altitude
519.537 km
Speed
7.618 km/s
True Right ascension
12h 51m 20s
True Declination
0° 00' 00"
Sunlit
Object was in daylight at epoch
Visualization orbit readout
Latitude
Unknown
Longitude
Unknown
Altitude
Unknown
Speed
Unknown
Apparent Right ascension
Unknown
Apparent Declination
Unknown
Sunlit
N/A
Visualization observer readout
Local Sidereal Time
08:03:30
Azimuth
Unknown
Elevation
Unknown
Doppler factor
Unknown
Orbital elements
Apogee altitude
604.246 km
Perigee altitude
476.537 km
Semi-major axis
6,918.528 km
Eccentricity
0.00923
Inclination
74.0157°
RAAN
192.8358°
Arg. of periapsis
293.6533°
True anomaly
66.46597°
Mean anomaly
65.499°
Eccentric anomaly
65.98203°
Mean motion
3.77157 °/min
Orbital period
95.45 mins
BSTAR
0.00087816

Documentation

Showing up to 5 results
|